Tracking 28052 objects as of 22-Sep-2023
HD Live streaming from Space Station
objects crossing your sky now

TJS-7

Track TJS-7 now!
TJS-7 is classified as:


NORAD ID: 49115
Int'l Code: 2021-077A
Perigee: 35,781.7 km
Apogee: 35,804.9 km
Inclination: 0.5 °
Period: 1,436.1 minutes
Semi major axis: 42164 km
RCS: Unknown
Launch date: August 24, 2021
Source: People's Republic of China (PRC)
Launch site: Xichang Space Center, China (XSC)
Your satellite tracking list
Your tracking list is empty




NASA's NSSDC Master Catalog

Two Line Element Set (TLE):
1 49115U 21077A   23264.62646692 -.00000120  00000-0  00000-0 0  9999
2 49115   0.4545  94.6336 0002751 266.9579 124.6807  1.00273514  7783
Source of the keplerian elements: AFSPC